Aérodrome :
LOGIN :

S'inscrire | Disclaimer

   EN    FR    IT 

 










Légende :    VFR   VFR Marginal   IFR   IFR Intensif   IFR Très Intensif
Visi : 
Plafond : 
>= 8 km
>= 3000ft
5 à 8 km
1000 à 3000 ft
1500m à 5 km
500 à 1000 ft
800 à 1500m
200 à 500 ft
< 800m
< 200 ft
Symboles :   Orages  Brouillard  Fortes neiges  Fortes précipitations  Vent > 20 kt
SIGMETs :   Divers  Orages  Givrage  Turbulence  Onde Orograph.  Cendres Volcan.







- Altitude de l'aérodrome : 82 ft
- Code IATA : AAR


EKAH - Aarhus Tirstrup

DERNIER METAR :
  • 211720Z AUTO 09012KT 9999NDV OVC024/// 05/01 Q1029

METARs EXPIRÉS :
  • 211650Z AUTO 08014KT 9999NDV BKN022/// 05/02 Q1029
  • 211620Z AUTO 09014KT 9999NDV OVC023/// 05/02 Q1029
  • 211550Z AUTO 09015KT 9999NDV OVC022/// 06/02 Q1029
  • 211520Z AUTO 09014KT 9999NDV BKN020/// 05/02 Q1029
  • 211450Z AUTO 08012KT 9999NDV OVC022/// 05/02 Q1029

TAF TAF EKAH
Valide du 21 à 18h jusqu'au 22 à 18h UTC


211708Z 2118/2218 09012KT 9999 BKN020
Pas de NOTAMs connus pour ce terrain.



MET'MAP, la Météo Aéronautique d'un coup d'oeil ! - Copyright ORBIFLY Décembre 2007 - Disclaimer

ORBIFLY MET'MAP TEAM :

Programmation & Développement : Alexandra Zaïnal
Conception & Développement : Baudouin d'Aumeries
Co-Programmation & Développement : Marc-Olivier Méhu
Soutien technique & logistique : Manuel Goepfert

Contact : metmap@orbifly.com




SOURCES & CREDITS :

   NOAA